Content
SEND FEEDBACK

Daily
Averages
Monthly
Summary
France

LE HAVRE, FRANCE


Home > Europe > France
Elevation: 103 meters     Latitude: 49 31N     Longitude: 000 04E

WEATHER
 
SELECT A DAY
Number of Records: 182,166;   Date Range: 3/4/97 - 9/30/14
 
SHARE

PRINT THIS DATA

[ ← Previous Day ]
WEATHER ALMANAC - 18 JANUARY, 2013
[ Next Day → ]
[ °F ]   °C
Weather ElementAverageHighLow
Temperature-2.4 °C-1 °C (12:30 am)-4 °C (1:30 pm)
Dewpoint-4.9 °C-3 °C (6:00 pm)-7 °C (12:30 am)
Humidity83.2 %100 % (7:30 pm)64 % (12:30 am)
Barometer1002 hPa1012.2 hPa (12:30 am)994.2 hPa (9:00 pm)
Wind Speed23.8 km/h33.3 km/h (2:30 pm)
Wind Gust53.8 km/h (2:30 pm)
Weather ElementAverage
Visibility6.6 km
Wind DirectionESE (123.6 °)

Weather ElementTotal
Precipitation---
Heating Degree Days20.8 (Base 18.3)
Averaged from 47 records on 18 January, 2013
WEATHER CONDITIONS BREAKOUT
WIND DIRECTION BREAKOUT
WEATHER BY HOUR - 18 JANUARY, 2013
[ °F ]   °C
Local TimeTemperatureDewpointHumidityBarometerVisibilityWind DirectionWind SpeedGust SpeedPrecipitationEventsConditions
12:30 AM-1 °C-7 °C64 %1012.2 hPa10 kmSE (130°)18.5 km/h
1:00 AM-1 °C-6 °C69 %1012.2 hPa10 kmSE (130°)16.7 km/h
1:30 AM-2 °C-6 °C74 %1012.2 hPa9 kmSE (130°)16.7 km/h
2:00 AM-2 °C-6 °C74 %1011.2 hPa9 kmSE (130°)20.4 km/h
2:30 AM-2 °C-6 °C74 %1011.2 hPa10 kmESE (120°)20.4 km/h
3:00 AM-2 °C-6 °C74 %1010.2 hPa10 kmESE (120°)18.5 km/h
3:30 AM-2 °C-6 °C74 %1010.2 hPa10 kmESE (120°)18.5 km/h
4:00 AM-2 °C-6 °C74 %1010.2 hPa9 kmESE (120°)18.5 km/h
4:30 AM-2 °C-5 °C80 %1010.2 hPa8 kmSE (130°)14.8 km/h
5:00 AM-2 °C-5 °C80 %1009.1 hPa6.9 kmSE (130°)16.7 km/h
5:30 AM-2 °C-5 °C80 %1009.1 hPa6.9 kmSE (130°)18.5 km/h
6:00 AM-2 °C-5 °C80 %1008.1 hPa6.9 kmSE (140°)18.5 km/h
6:30 AM-2 °C-6 °C74 %1008.1 hPa9 kmSE (140°)18.5 km/h
7:00 AM-2 °C-6 °C74 %1007.1 hPa9 kmSE (130°)18.5 km/h
7:30 AM-3 °C-7 °C74 %1006.1 hPa10 kmESE (120°)22.2 km/h
8:00 AM-3 °C-7 °C74 %1005.1 hPa10 kmESE (120°)25.9 km/h
8:30 AM-3 °C-7 °C74 %1005.1 hPa10 kmSE (130°)27.8 km/h
9:00 AM-3 °C-7 °C74 %1004.1 hPa10 kmSE (130°)27.8 km/h
9:30 AM-3 °C-7 °C74 %1004.1 hPa10 kmSE (130°)22.2 km/h
10:00 AM-3 °C-7 °C74 %1004.1 hPa9 kmSE (130°)27.8 km/h46.3 km/hSnowLight Snow
10:30 AM-3 °C-6 °C80 %1003 hPa6.9 kmSE (130°)25.9 km/hSnowLight Snow
11:00 AM-3 °C-6 °C80 %1003 hPa1.9 kmESE (120°)27.8 km/hSnowSnow
11:30 AM-3 °C-5 °C86 %1002 hPa1.8 kmESE (120°)25.9 km/hSnowSnow
12:00 PM-3 °C-5 °C86 %1002 hPa1.9 kmESE (120°)25.9 km/hSnowLight Snow
12:30 PM-3 °C-5 °C86 %1001 hPa1 kmESE (120°)27.8 km/hSnowHeavy Snow
1:00 PM-3 °C-5 °C86 %1000 hPa1 kmESE (120°)31.5 km/h50.1 km/hFog-SnowSnow
1:30 PM-4 °C-5 °C93 %1000 hPa0.5 kmESE (120°)31.5 km/hFog-SnowHeavy Snow
2:00 PM-3 °C-4 °C93 %999 hPa0.8 kmESE (120°)31.5 km/hFog-SnowSnow
2:30 PM-3 °C-4 °C93 %998 hPaESE (120°)33.3 km/h53.8 km/hSnowLight Snow
3:00 PM-3 °C-4 °C93 %997 hPa6.9 kmESE (120°)31.5 km/hSnowLight Snow
3:30 PM-3 °C-4 °C93 %996.3 hPa5 kmESE (120°)31.5 km/hSnowLight Snow
4:00 PM-3 °C-4 °C93 %996.3 hPa8 kmESE (120°)33.3 km/hSnowLight Snow
4:30 PM-3 °C-4 °C93 %996.3 hPa5 kmESE (120°)31.5 km/hOvercast
5:00 PM-2 °C-4 °C86 %996.3 hPaESE (120°)27.8 km/hOvercast
5:30 PM-2 °C-4 °C86 %996.3 hPaESE (120°)27.8 km/hOvercast
6:00 PM-2 °C-3 °C93 %996.3 hPaSE (130°)24.1 km/hSnowLight Snow
6:30 PM-2 °C-3 °C93 %995.3 hPaESE (120°)25.9 km/hOvercast
7:00 PM-2 °C-3 °C93 %995.3 hPa1.1 kmESE (120°)25.9 km/hFog-SnowLight Snow
7:30 PM-3 °C-3 °C100 %995.3 hPa0.6 kmESE (120°)24.1 km/hFog-SnowHeavy Snow
8:00 PM-2 °C-3 °C93 %995.3 hPa6 kmESE (120°)24.1 km/hRainRain
8:30 PM-2 °C-4 °C86 %995.3 hPa6.9 kmESE (120°)22.2 km/hSnowLight Snow
9:00 PM-2 °C-4 °C86 %994.2 hPa8 kmESE (120°)20.4 km/hSnowLight Snow
9:30 PM-2 °C-4 °C86 %994.2 hPa8 kmESE (120°)20.4 km/hOvercast
10:00 PM-2 °C-4 °C86 %994.2 hPa6.9 kmESE (120°)22.2 km/hSnowLight Snow
10:30 PM-2 °C-3 °C93 %994.2 hPa6 kmESE (120°)18.5 km/hSnowLight Snow
11:00 PM-2 °C-3 °C93 %994.2 hPa6 kmESE (120°)18.5 km/hSnowLight Snow
11:30 PM-2 °C-3 °C93 %994.2 hPa6.9 kmESE (110°)16.7 km/hOvercast
Hourly data recorded from LFOH, located 0 kilometers away from Le Havre, France







STORIES FROM OUR PARTNERS